Temp
24 23 23 23 23 22 22 22 22 22 22 22 22 22 22 21 21 21 21 21 21 21 21 21 21 20 20 20 20 20 20 20 20 20 20 20 20 20 20 20 20 20
24 24 23 23 23 22 22 22 22 22 22 22 22 22 21 21 21 21 21 21 21 21 21 21 20 20 20 20 20 20 20 20 20 20 20 20 20 20 20 20 20 19
24 24 23 23 23 23 22 22 22 22 22 22 22 22 22 21 21 21 21 21 21 21 21 21 20 20 20 20 20 20 20 20 20 20 20 20 20 20 20 19 19 19
24 23 23 23 23 23 23 22 22 22 22 22 22 22 22 21 21 21 21 21 21 21 21 21 21 21 21 21 20 20 20 20 20 20 20 20 20 19 19 19 19 19
24 23 23 23 23 23 22 22 22 22 22 22 22 22 22 22 21 21 21 21 21 21 21 21 21 21 21 21 20 20 20 20 20 20 20 20 20 19 19 19 19 19
24 23 23 23 23 22 22 22 22 22 22 22 22 22 22 21 21 21 21 21 21 21 21 21 21 21 21 21 20 20 20 20 20 20 20 20 20 19 19 19 19 19
24 23 23 23 22 22 22 22 22 22 22 22 22 22 22 21 21 21 21 21 21 21 21 21 21 21 21 20 20 20 20 20 20 20 20 20 20 19 19 19 19 19
24 23 23 23 23 22 22 22 22 22 22 22 22 22 22 22 22 21 21 21 21 21 21 21 20 21 20 20 20 20 20 20 20 20 20 20 20 19 19 19 19 18
24 24 23 23 23 23 23 23 23 23 23 23 23 23 23 23 22 22 22 21 21 21 21 20 20 20 20 20 20 20 20 20 19 19 19 19 19 19 19 19 19 18
24 24 23 23 23 23 23 23 24 24 24 23 23 23 23 23 23 22 22 22 22 21 21 21 21 20 20 20 20 20 20 20 19 19 19 19 19 19 19 19 18 18
24 24 23 23 23 23 24 24 24 24 24 24 24 23 23 23 23 23 23 22 22 22 22 22 21 21 20 20 20 20 20 20 20 19 19 19 19 19 19 19 18 18
24 24 24 24 23 24 24 24 24 24 24 24 23 22 22 22 22 22 23 23 23 22 22 22 22 21 21 20 20 20 20 20 20 19 19 19 19 19 19 19 19 18
24 24 24 24 24 24 24 24 24 24 23 23 22 22 22 22 22 22 23 23 22 22 22 21 21 21 21 20 20 20 20 20 20 19 19 19 19 19 19 19 19 18
25 24 24 24 24 24 24 23 23 23 23 22 22 22 22 22 22 22 22 22 22 22 22 21 21 21 21 20 20 20 19 20 20 19 19 19 19 19 19 19 19 18
25 25 24 24 24 24 23 23 23 23 22 22 22 21 21 22 22 22 22 22 22 22 22 21 21 21 21 20 19 19 19 19 19 19 19 19 19 19 19 19 19 18
25 25 24 24 24 24 23 23 23 23 22 22 22 21 21 22 22 22 22 22 22 22 21 21 21 21 20 20 20 19 19 19 19 19 19 19 19 19 19 19 19 19
25 24 24 24 24 23 23 23 23 23 22 22 22 22 21 22 22 22 22 22 22 22 21 21 21 21 20 20 20 20 19 19 19 19 19 19 19 19 19 19 19 19
24 24 24 24 24 23 23 23 23 22 22 22 22 22 22 22 22 22 22 22 22 22 21 21 21 21 21 20 20 20 19 19 19 19 19 19 18 19 19 19 19 18
24 24 24 24 24 23 23 23 23 23 23 22 22 22 22 22 22 22 22 22 22 22 21 21 21 20 20 20 20 20 19 19 19 19 19 18 18 18 18 18 18 18
24 24 24 24 24 23 23 23 23 23 23 22 22 22 22 22 22 22 22 22 22 21 21 21 21 20 20 20 20 20 19 19 19 19 18 18 18 18 18 18 18 17
24 24 24 24 24 24 23 23 23 23 23 22 22 22 22 23 22 22 22 22 21 21 21 21 21 21 21 20 20 19 19 19 18 18 18 18 18 18 18 18 18 17
25 25 24 24 24 24 24 23 23 23 23 22 22 22 22 22 22 22 22 22 22 21 21 21 21 21 21 20 20 19 19 18 18 18 18 17 17 18 18 17 18 17
25 25 25 24 24 24 23 23 23 23 23 22 22 21 22 22 22 22 22 22 22 21 21 21 21 20 20 20 20 19 18 18 18 18 17 17 17 17 17 17 18 18
25 25 25 24 24 24 23 23 23 23 23 22 22 22 22 23 22 22 22 22 21 21 21 21 20 21 21 20 19 19 18 18 18 17 17 17 17 17 17 17 18 18
26 25 25 25 24 24 23 23 23 23 23 23 22 22 23 22 22 22 22 22 21 21 21 21 21 21 20 20 19 19 18 18 17 17 17 17 17 17 17 17 18 18
26 26 25 25 24 24 23 23 23 23 23 22 22 22 23 22 22 22 22 21 21 21 20 20 20 21 20 19 19 18 18 18 17 17 17 17 17 17 17 17 18 18
Height
816 817 817 817 818 818 818 818 819 819 819 819 819 819 819 819 819 819 818 818 818 818 818 818 817 817 817 816 815 815 814 813 813 812 811 811 811 810 810 809 808 808
815 815 816 816 816 816 817 817 818 818 818 818 818 818 818 818 818 818 818 818 817 817 817 816 816 816 815 815 814 813 813 812 812 812 811 810 810 809 809 808 807 807
813 814 814 815 815 815 815 815 816 816 816 817 817 817 817 817 817 817 817 817 816 816 816 815 815 814 814 813 813 812 811 811 811 810 810 809 809 808 808 807 806 806
812 813 813 813 813 813 814 814 814 814 815 815 815 815 816 816 816 816 816 816 815 815 814 814 813 813 812 812 811 811 810 810 810 809 809 808 808 807 806 806 805 804
810 811 811 812 812 812 812 812 813 813 813 813 814 814 814 814 815 815 815 814 814 814 813 812 812 811 811 810 810 809 809 808 808 808 808 807 807 806 805 804 803 802
809 810 810 810 810 810 811 811 812 811 811 811 812 812 813 813 813 813 813 813 812 812 812 811 811 810 810 810 809 808 808 807 807 806 806 805 805 804 803 803 801 801
808 808 809 809 809 809 809 809 810 809 809 809 809 810 810 811 811 811 811 811 811 811 810 810 810 809 809 809 808 808 807 806 806 805 805 804 803 803 802 801 800 799
806 807 808 808 807 808 807 808 808 807 807 807 807 808 808 808 809 809 809 809 809 809 809 808 808 807 807 807 806 806 805 805 805 804 803 802 801 801 800 799 798 797
805 806 807 807 806 806 806 806 805 804 804 805 806 806 806 806 806 806 806 806 806 807 806 806 806 806 805 805 804 804 803 802 802 802 802 801 800 799 798 797 796 795
803 804 805 805 804 804 804 804 804 803 803 804 804 805 805 805 805 804 804 804 804 804 804 803 803 803 803 802 802 801 800 800 799 799 799 799 798 797 796 795 794 793
800 802 803 803 803 803 802 802 802 801 801 802 802 802 803 803 803 803 803 802 802 802 802 801 801 801 800 800 800 799 798 798 797 797 797 796 796 796 794 793 793 792
798 799 801 802 801 801 801 800 800 800 800 800 800 801 801 801 801 801 801 800 800 799 799 799 799 799 798 798 798 797 796 796 795 795 795 794 794 793 792 791 791 790
795 797 798 799 800 799 799 799 799 799 799 799 799 799 799 799 799 799 799 798 798 797 797 797 797 796 796 795 795 795 794 794 793 793 792 792 791 791 790 789 788 788
791 794 796 797 798 797 797 797 797 797 797 797 798 798 798 798 797 797 797 796 796 796 795 795 794 794 793 793 793 792 792 791 791 791 790 790 789 788 787 787 786 786
789 792 793 795 795 795 795 795 795 795 796 796 797 797 797 796 796 795 795 795 794 794 793 793 792 792 791 791 791 790 789 789 789 788 788 787 787 786 785 784 784 784
787 790 791 792 793 793 793 793 793 793 793 794 795 795 795 794 794 794 793 793 792 792 792 791 790 789 789 789 789 788 787 787 786 786 786 785 784 783 783 782 782 782
785 788 789 790 790 790 790 790 790 791 791 792 792 792 792 792 791 791 791 791 790 790 790 789 788 787 786 786 787 786 786 785 784 784 783 783 782 781 781 780 779 779
783 785 786 787 787 787 788 788 788 789 789 790 790 790 790 790 789 789 788 789 788 788 787 787 785 785 784 784 784 784 784 783 783 782 781 781 780 779 779 778 777 777
781 782 783 784 784 785 785 785 786 787 787 788 788 789 789 788 788 787 786 787 786 785 785 784 783 782 781 782 781 781 781 781 780 780 779 779 778 778 777 776 775 775
779 779 781 781 781 782 783 783 784 785 785 786 787 787 787 787 786 785 784 785 784 783 783 781 781 780 779 779 779 779 779 779 778 777 777 776 776 776 775 774 774 773
775 776 777 778 779 780 780 781 782 782 784 784 784 785 785 785 784 783 782 782 781 781 780 779 779 779 778 777 777 777 777 776 776 775 774 774 773 773 773 772 772 771
772 773 774 775 776 777 778 779 780 781 782 782 782 783 783 783 783 782 780 780 779 778 778 778 778 777 777 776 775 775 775 774 773 772 771 771 770 770 771 770 768 767
769 770 771 772 773 774 776 777 778 779 780 780 781 781 781 781 780 779 779 778 777 776 776 776 776 776 775 774 773 773 773 772 771 770 769 769 768 768 768 767 766 765
765 766 768 769 770 772 773 775 776 777 777 778 779 779 779 779 778 777 777 775 775 775 774 774 774 773 773 772 771 771 771 770 769 768 767 767 766 766 765 764 763 762
762 763 765 766 768 769 771 773 774 774 775 775 777 777 776 776 776 775 774 773 773 773 772 772 772 771 771 771 770 770 769 768 767 766 765 765 764 763 763 762 761 760
760 762 763 764 766 767 769 771 771 772 773 773 774 775 774 774 774 773 772 772 772 772 771 771 771 770 770 770 769 768 767 766 766 765 764 763 762 762 761 760 759 758
Wind_Speed
7 7 6 4 4 4 3 3 4 4 4 6 7 7 7 8 8 8 8 8 8 9 9 9 9 10 10 10 11 11 11 12 12 11 10 11 11 12 12 13 13 15
8 8 7 6 6 6 6 5 4 4 5 6 6 7 8 8 8 8 8 9 9 10 10 10 10 11 11 11 11 11 11 12 11 10 10 10 11 11 12 13 14 14
9 8 8 8 7 7 6 5 4 4 5 5 6 7 7 8 8 9 10 10 11 11 10 11 11 11 11 11 12 12 11 11 11 10 10 10 11 12 13 13 13 14
10 9 8 8 7 6 6 5 5 5 5 5 6 7 7 8 9 10 11 11 12 12 12 12 12 11 11 12 12 12 12 11 11 9 9 10 11 11 12 12 12 13
11 10 9 9 8 7 7 6 5 5 5 6 6 7 7 8 9 10 11 12 12 13 13 13 13 12 12 12 12 13 12 11 10 9 9 10 10 9 10 11 12 13
11 10 10 9 9 8 8 7 6 6 7 7 8 8 8 8 10 11 12 13 13 14 14 14 13 13 13 13 13 13 13 11 10 10 9 10 10 9 8 10 11 12
11 11 11 10 10 9 8 7 8 9 10 9 10 10 9 9 10 11 12 13 14 14 15 15 15 15 14 13 13 13 13 13 12 10 10 11 11 10 9 9 10 11
12 12 12 11 10 10 10 10 12 14 13 12 12 11 10 10 10 11 12 13 14 15 16 16 16 16 15 14 13 13 13 14 13 11 11 12 11 11 10 9 9 10
12 12 12 12 11 11 11 10 11 14 14 13 12 10 9 10 11 12 13 13 15 16 16 17 16 16 15 15 14 13 12 14 14 13 13 13 12 10 10 9 9 10
13 12 12 12 12 12 11 10 10 11 8 7 8 8 9 11 12 13 13 14 15 15 16 16 16 15 14 15 16 16 15 15 15 14 14 14 13 11 10 10 10 10
14 13 13 13 12 11 10 10 9 9 7 6 8 8 8 10 12 12 14 15 15 14 15 16 16 15 14 15 17 18 18 18 16 14 13 14 13 12 12 11 11 12
15 15 14 14 13 12 10 9 8 9 10 8 6 6 8 10 11 13 15 15 15 14 13 15 16 16 15 15 17 17 18 17 16 15 15 15 14 14 14 13 13 13
16 16 15 13 13 12 10 9 9 9 9 9 9 9 10 11 12 14 14 14 14 14 14 15 16 16 15 15 16 17 17 17 17 17 17 17 16 16 16 15 15 14
15 15 15 14 13 12 10 9 9 8 9 10 11 11 11 12 13 14 14 14 16 17 17 16 16 16 14 14 15 16 16 16 17 17 17 17 18 19 18 17 16 16
13 13 14 13 13 12 10 10 9 9 9 10 10 11 12 13 14 14 15 16 16 15 15 14 14 14 12 12 13 13 14 15 15 16 17 18 19 19 19 19 18 17
14 14 13 13 13 12 11 10 9 9 10 11 11 12 13 13 14 15 15 14 14 14 15 14 13 12 11 11 11 13 13 14 14 16 17 18 19 19 20 20 18 18
16 16 15 14 14 13 12 11 11 11 11 12 12 13 14 14 14 14 13 13 14 14 15 13 12 13 13 11 11 12 13 13 14 15 16 17 17 18 19 20 19 18
19 18 17 16 15 14 14 12 12 12 12 13 14 14 14 14 13 13 13 13 14 14 15 14 14 17 17 14 13 13 13 14 14 15 16 17 17 18 19 20 20 19
20 19 18 16 15 15 14 13 12 13 13 13 14 14 14 14 13 13 12 13 14 15 17 17 16 17 18 16 15 13 12 14 16 17 18 17 17 18 19 20 21 21
21 20 18 16 15 15 14 13 13 13 14 14 14 14 14 15 14 13 12 13 14 14 15 16 15 16 16 16 14 13 13 15 17 19 19 18 18 19 20 21 20 18
22 21 18 16 15 14 13 13 13 14 14 14 14 14 14 15 15 13 13 13 13 13 13 13 14 15 14 14 13 13 14 15 17 20 20 19 20 20 19 19 17 17
21 19 17 16 14 13 12 12 12 13 14 15 16 15 15 17 16 15 14 14 13 14 14 14 14 15 15 15 14 13 13 14 17 19 19 19 20 19 18 19 20 21
20 18 17 16 15 13 12 12 11 11 13 15 16 16 17 17 17 16 16 14 15 16 17 17 16 16 16 16 14 12 12 15 16 17 17 18 19 18 19 22 24 22
20 19 18 16 15 14 12 11 11 12 13 13 14 16 18 17 16 17 17 16 17 18 18 18 18 16 16 14 12 11 14 16 17 16 17 17 17 18 21 23 23 21
17 18 18 15 14 13 12 12 13 13 12 11 13 16 17 16 16 17 17 17 19 19 19 19 18 16 12 9 8 11 15 17 17 16 15 16 16 18 21 21 19 17
16 16 16 15 13 11 11 13 13 12 10 10 14 16 15 15 16 17 19 21 20 19 19 19 17 13 9 7 10 14 16 15 13 12 12 13 14 16 19 19 18 16
Wind_Direction
198 197 203 215 215 219 230 233 241 265 286 293 298 303 304 306 306 305 305 303 299 300 300 301 304 309 312 315 318 320 319 319 319 322 326 329 330 332 331 329 329 331
200 200 198 207 217 215 216 223 231 259 281 286 291 298 300 301 304 305 305 302 300 299 297 298 301 305 308 310 314 315 314 315 315 316 321 323 324 327 328 328 328 330
200 203 203 206 215 211 207 218 235 252 269 282 290 299 303 304 305 304 304 303 301 299 296 295 294 295 300 304 308 310 310 310 309 308 310 312 317 322 323 324 325 328
200 204 209 210 214 212 207 218 233 245 264 287 301 307 305 304 303 303 302 301 300 298 294 291 289 289 292 295 299 304 305 305 302 299 299 304 311 314 316 322 324 325
202 204 207 210 211 206 205 218 233 245 264 281 291 294 293 299 301 298 298 298 297 297 294 293 292 291 292 292 293 297 300 300 297 294 291 295 303 308 312 319 323 324
200 204 205 207 205 204 209 220 231 240 251 259 263 269 275 287 292 290 291 293 292 293 293 293 295 294 292 292 292 294 295 293 293 295 294 295 300 304 311 319 323 325
200 204 205 205 204 207 210 216 232 239 243 247 247 251 258 267 276 279 282 286 288 289 289 291 293 294 296 297 294 293 293 293 292 290 292 297 300 305 313 320 321 322
203 205 206 208 206 210 214 221 235 239 239 243 243 247 253 256 266 273 277 281 284 285 287 289 290 292 296 296 294 295 294 294 294 292 293 295 297 303 311 316 316 317
203 207 208 211 210 214 222 230 245 249 244 239 240 249 263 268 270 270 270 276 280 280 281 282 285 288 292 290 287 292 294 291 292 293 293 292 293 299 303 307 311 311
200 208 212 215 216 219 224 231 250 260 254 236 242 260 276 281 280 276 277 280 279 279 282 282 282 282 284 287 286 285 284 284 286 288 288 289 292 296 298 300 302 302
198 208 213 217 222 226 230 235 253 273 283 281 276 281 287 290 293 292 292 287 280 281 287 290 290 284 277 283 291 288 282 282 285 285 283 285 289 293 295 295 295 294
198 205 214 220 223 227 235 244 257 269 276 286 302 311 303 298 299 297 294 293 289 289 290 292 298 293 277 278 291 291 283 282 286 284 283 285 287 290 292 291 290 288
199 204 213 222 226 228 233 240 252 264 278 299 316 315 306 299 295 291 294 302 305 304 303 300 301 297 284 278 287 289 282 280 282 285 289 292 290 290 289 287 286 283
200 205 211 218 224 228 230 235 248 261 274 287 293 295 295 290 288 291 296 302 302 301 301 298 295 296 288 277 281 286 282 279 283 287 291 291 288 289 289 285 282 278
203 207 211 215 220 224 227 233 241 248 256 265 271 278 283 283 286 292 294 295 296 297 299 299 299 300 291 272 272 278 276 278 284 286 286 285 285 288 287 283 280 275
206 210 211 213 217 219 223 230 236 242 250 255 259 267 275 279 282 286 287 290 295 299 301 300 295 291 284 276 275 273 270 276 280 278 282 285 285 288 288 284 281 277
206 210 211 213 217 218 221 227 235 243 250 253 256 262 268 271 275 280 283 285 289 294 296 293 286 283 284 284 284 280 274 272 272 273 281 284 283 287 290 288 287 283
206 208 208 211 214 218 224 228 236 246 253 255 258 261 266 269 273 277 281 284 286 287 286 284 284 285 285 282 280 283 280 274 273 275 279 281 283 288 292 294 295 292
206 206 206 209 213 219 225 231 238 246 254 258 262 265 267 269 270 273 279 285 285 282 282 282 281 280 283 283 280 279 276 275 278 279 280 280 283 290 297 298 298 296
205 207 206 208 214 219 224 230 238 247 255 259 264 268 270 270 268 267 274 280 280 280 285 288 283 277 275 276 279 281 280 279 279 279 280 278 280 290 300 302 303 303
203 205 204 208 214 219 225 232 238 247 254 259 262 265 270 273 272 270 272 275 276 277 281 283 282 280 276 275 284 291 289 285 283 281 277 272 277 291 299 303 311 311
202 201 202 209 213 218 229 238 243 246 251 260 263 261 264 269 271 271 271 271 273 275 275 275 279 282 281 281 287 291 290 292 291 285 275 267 276 289 292 298 312 315
200 200 203 207 211 219 230 240 248 252 256 263 262 258 260 264 267 271 271 270 274 276 276 274 275 278 281 282 285 290 298 303 300 287 273 269 278 285 288 299 313 317
198 201 203 204 208 215 224 235 250 256 257 262 263 260 260 263 268 274 273 270 272 275 275 273 273 277 282 280 282 295 306 309 305 294 280 274 278 284 289 300 311 315
201 202 203 205 210 212 221 236 248 250 248 256 268 267 266 267 270 275 276 274 273 273 273 270 271 280 288 289 298 309 311 310 305 296 285 279 279 285 292 298 305 314
208 207 203 206 213 214 221 232 242 247 248 261 272 271 270 274 276 277 277 278 281 288 289 285 281 281 285 296 311 315 315 313 309 300 291 290 292 292 294 295 298 311